Погода в Санта-Крус

США     36°58′26″N   122°01′51″W
темп.,
°C
ветер,
м/с
пор.,
м/с
влажн.,
%
обл.,
%
осадки,
мм/ч
давл.,
гПа
погр.,
м
16 октября, сб
сб1623:00+17св22341 0.0 101917
02:00+16ссв22340 0.0 101814
05:00+16ссв22340 0.0 101718
08:00+16ссв22365 0.0 101624
11:00+24вюв22230 0.0 1016372
14:00+25ююз33190 0.0 1014645
17:00+23ююз24263 0.0 1013358
20:00+17юв2238100 0.0 101427
17 октября, вс
вс1723:00+15вюв11505 0.0 101527
02:00+15в11401 0.0 101311
05:00+14ю1142100 0.0 101312
08:00+14зюз255697 0.0 1013182
11:00+17ю366018 0.0 1014533
14:00+17юз5862100 0.0 1012668
17:00+15зюз5873100 0.0 1012708
20:00+13зсз6986100 0.5 1013681
18 октября, пн
пн1823:00+11зсз36864 1.1 1015544
02:00+10сз24862 0.1 1016266
05:00+10сз257857 0.1 1017567
08:00+10с11759 0.0 1018141
11:00+14ююз02568 0.0 1018953
14:00+17зюз23438 0.0 10161563
17:00+16с23440 0.0 10151152
20:00+12с23615 0.0 1016141
19 октября, вт
вт1923:00+10ссв11670 0.0 1017107
02:00+9ссв22720 0.0 101694
05:00+9ссв22700 0.0 101672
08:00+10всв11640 0.0 101673
11:00+14ююв24470 0.0 1017467
14:00+16ююз354542 0.0 1016689
17:00+15юз34490 0.0 1016573
20:00+12юв2363100 0.0 1017183
20 октября, ср
ср2023:00+11юв2373100 0.0 1017171
02:00+11вюв2272100 0.0 101899
05:00+12вюв2361100 0.0 1018124
08:00+12в2461100 0.1 1018135
11:00+15ююв134584 0.1 1020231
14:00+18юз465424 0.0 1019601
17:00+16зюз2372100 0.0 1018308
20:00+15в0178100 0.0 101993